www.pogodaiklimat.ru
ПОГОДА в Киринии
Время
(UTC), дата
00 9.12
03 9.12
04 9.12
05 9.12
06 9.12
07 9.12
08 9.12
09 9.12
10 9.12
11 9.12
12 9.12
13 9.12
14 9.12
15 9.12
16 9.12
17 9.12
18 9.12
19 9.12
20 9.12
21 9.12
00 10.12
03 10.12
04 10.12
05 10.12
06 10.12
07 10.12
08 10.12
09 10.12
10 10.12
11 10.12
12 10.12
13 10.12
14 10.12
15 10.12
16 10.12
19 10.12
00 11.12
05 11.12
06 11.12
07 11.12
08 11.12
09 11.12
10 11.12
11 11.12
12 11.12
13 11.12
14 11.12
15 11.12
16 11.12
17 11.12
18 11.12
19 11.12
20 11.12
21 11.12
22 11.12
23 11.12
00 12.12
01 12.12
02 12.12
03 12.12
04 12.12
05 12.12
06 12.12
07 12.12
08 12.12
09 12.12
10 12.12
12 12.12
14 12.12
15 12.12
16 12.12
17 12.12
18 12.12
19 12.12
20 12.12
21 12.12
00 13.12
03 13.12
04 13.12
05 13.12
06 13.12
07 13.12
08 13.12
09 13.12
10 13.12
11 13.12
12 13.12
13 13.12
14 13.12
15 13.12
16 13.12
17 13.12
18 13.12
19 13.12
20 13.12
21 13.12
00 14.12
03 14.12
04 14.12
05 14.12
06 14.12
07 14.12
08 14.12
09 14.12
10 14.12
11 14.12
12 14.12
13 14.12
14 14.12
15 14.12
16 14.12
17 14.12
18 14.12
19 14.12
20 14.12
21 14.12
22 14.12
23 14.12
00 15.12
01 15.12
02 15.12
03 15.12
04 15.12
05 15.12
06 15.12
07 15.12
08 15.12
09 15.12
10 15.12
11 15.12
12 15.12
13 15.12
14 15.12
15 15.12
17 15.12
18 15.12
19 15.12
20 15.12
Ветер
(напр.,м/с)
Видим. Явления Облачность Т
(С)
Тd
(С)
f
(%)
Тe
(С)
Тes
(С)
Комфортность P
(гПа)
Po
(гПа)
Тmin
(С)
Tmax
(С)
R
(мм)
R24
(мм)
S
(см)
штиль 0 10 км 6/6 750 м
[Cu Sc]
+13.6 +8.3 70 +13 +13 1013.0 1012.0
штиль 0 10 км гроза без осадков 6/6 750 м
[Cb cap]
+14.8 +9.4 70 +15 +15 1012.0 1011.0
В 3 8000 м гроза, ливневой дождь 8/8 600 м
[Cb cap]
+14.1 +8.3 68 +13 +13 1012.0 1011.0
Ю 2 8000 м слаб. ливневой дождь {гроза} 9/6 600 м
[Cb cap Ac und]
+12.5 +8.9 79 +12 +12 1013.0 1012.0
ЮВ 2 8000 м в посл. час ливневой дождь {гроза} 9/6 750 м
[Cb cap Ac und]
+12.9 +9.5 80 +12 +12 1013.5 1012.5 +12.5 5 4.8
Ю 2 8000 м слаб. ливневой дождь {гроза} 9/6 600 м
[Cb cap Ac trans]
+12.8 +9.2 79 +12 +12 1013.5 1012.5
СВ 4 8000 м в посл. час ливневой дождь 10/6 600 м
[Cb cap Ac trans]
+14.3 +9.9 75 +13 +13 1014.3 1013.3
СВ 3 8000 м {гроза, ливн. осадки} 10/5 900 м
[Cb cap Ac trans]
+13.1 +9.7 80 +12 +13 1014.0 1013.0
СВ 2 8000 м гроза без осадков 10/5 600 м
[Cb cap Ac trans]
+13.3 +10.2 81 +13 +14 1014.0 1013.0
СВ 2 10 км 9/5 600 м
[Cb cap Ac trans]
+13.5 +10.2 80 +13 +14 1013.5 1012.5
СВ 2 10 км гроза, ливневой дождь 9/5 750 м
[Cb cap Ac trans]
+14.5 +9.6 72 +14 +15 1013.0 1012.0 3
штиль 0 8000 м гроза, ливневой дождь 10/6 600 м
[Cb cap Ac trans]
+13.6 +10.7 83 +13 +14 1013.5 1012.5
штиль 0 8000 м в посл. час гроза 9/5 600 м
[Cb cap Ac trans]
+12.4 +10.6 89 +12 +12 1013.5 1012.5
штиль 0 8000 м {гроза, ливн. осадки} 9/5 900 м
[Cb cap Ac trans]
+12.7 +10.8 88 +12 +12 1014.0 1013.0
штиль 0 10 км 8/5 600 м
[Cb cap Ac trans]
+12.5 +10.5 88 +12 +12 1014.0 1013.0
штиль 0 10 км 8/5 600 м
[Cb cap Ac trans]
+12.5 +8.0 74 +12 +12 1014.0 1013.0
штиль 0 10 км {гроза, ливн. осадки} 8/5 900 м
[Cb cap Ac trans]
+12.2 +9.8 85 +12 +12 1014.5 1013.5 +14.8 12
штиль 0 10 км 6/4 600 м
[Cu med, cong Ac trans]
+12.0 +10.5 91 +11 +11 1014.0 1013.0
штиль 0 10 км 6/3 600 м
[Cu med, cong Ac trans]
+12.0 +9.2 83 +11 +11 1014.5 1013.5
штиль 0 10 км 6/3 900 м
[Cu med, cong Ac trans]
+11.0 +9.2 89 +10 +10 1014.5 1013.5
штиль 0 10 км 5/3 900 м
[Cu med, cong Ac trans]
+10.0 +9.2 95 +9 +9 1014.5 1013.5
штиль 0 10 км 5/3 900 м
[Cu med, cong Ac trans]
+11.0 +5.2 67 +11 +11 1014.5 1013.5
штиль 0 10 км 5/3 600 м
[Cu med, cong Ac trans]
+13.9 +9.0 72 +14 +14 1014.5 1013.5
штиль 0 10 км 6/3 600 м
[Cu med, cong Ac trans Ci fib]
+13.8 +8.4 70 +14 +14 1014.5 1013.5
штиль 0 10 км 6/3 900 м
[Cu med, cong Ci fib]
+14.5 +8.8 69 +14 +15 1015.0 1014.0 +10.0 12.9
ЮВ 2 10 км 6/3 600 м
[Cu med, cong Ci fib]
+16.1 +9.3 64 +16 +18 1015.4 1014.4
В 4 10 км 6/3 600 м
[Cu med, cong Ci fib]
+16.8 +9.4 62 +16 +18 1015.5 1014.5
В 4 10 км 6/3 900 м
[Cu med, cong Ac trans]
+17.4 +9.1 58 +17 +19 1015.4 1014.4
В 5 10 км 8/3 600 м
[Cu med, cong Ac trans Ci fib]
+17.2 +9.5 61 +17 +18 1014.9 1013.9
В 4 10 км 8/3 600 м
[Cu med, cong Ac trans Ci fib]
+17.5 +9.2 58 +17 +19 1014.8 1013.8
В 4 10 км 8/4 750 м
[Cu Sc Ac und]
+17.6 +9.7 60 +17 +18 1014.8 1013.8
В 4 10 км 8/5 600 м
[Cu med, cong Ac trans Ci fib]
+17.4 +9.9 61 +17 +17 1014.8 1013.8
В 2 10 км 8/5 600 м
[Cu med, cong Ac trans Ci sp]
+17.2 +9.8 62 +18 +18 1014.8 1013.8
ЮВ 3 10 км 9/5 750 м
[Cu med, cong Ac trans Ci sp]
+16.3 +9.1 62 +16 +16 1014.9 1013.9
штиль 0 10 км 9/5 600 м
[Cu med, cong Ac trans Ci fib]
+15.5 +8.6 63 +15 +15 1015.1 1014.1
ЮВ 3 10 км 9/5 600 м
[Cu med, cong Ac trans Ci fib]
+16.1 +9.8 66 +16 +16 1015.1 1014.1
штиль 0 10 км 9/5 900 м
[Cu med, cong Ac trans Ci fib]
+16.0 +9.3 64 +16 +16 1015.5 1014.5
ЮВ 4 10 км 9/4 600 м
[Cu Sc Ac und]
+15.8 +11.6 76 +15 +15 1015.0 1014.0
ЮВ 5 10 км 9/4 750 м
[Cu Sc Ac und]
+15.9 +11.5 75 +15 +15 1015.2 1014.2 +15.4
ЮВ 3 10 км 9/6 600 м
[Cu Sc Ac trans]
+16.3 +11.1 71 +16 +16 1016.0 1015.0
В 8 10 км 8/4 600 м
[Cu Sc Ac trans Ci sp]
+17.0 +11.1 68 +16 +16 1015.8 1014.8
В 10 10 км 9/4 750 м
[Cu Sc Ac und]
+17.6 +11.2 66 +16 +16 1015.6 1014.6
В 4 10 км 9/5 600 м
[Cu Sc Ac und]
+17.5 +10.6 64 +17 +18 1015.1 1014.1
В 5 10 км 9/5 600 м
[Cu Sc Ac und]
+17.5 +10.4 63 +17 +18 1015.0 1014.0
В 4 10 км в посл. час ливневой дождь 9/5 750 м
[Cu Sc Ac und]
+17.1 +10.4 65 +17 +17 1014.9 1013.9 0.1
Ю 2 10 км слаб. дождь 10/5 600 м
[Cu Sc Ac As]
+14.8 +10.6 76 +14 +15 1014.5 1013.5
В 2 8000 м дождь 10/5 600 м
[Cu Sc Ac As]
+15.0 +10.3 73 +15 +15 1014.4 1013.4
ЮВ 2 8000 м слаб. дождь 10/5 750 м
[Cu Sc Ac As]
+15.5 +9.7 68 +15 +15 1014.5 1013.5
Ю 2 8000 м слаб. дождь 10/5 600 м
[Cu Sc Ac As]
+14.1 +10.7 80 +14 +14 1014.7 1013.7
штиль 0 8000 м в посл. час дождь 10/5 600 м
[Cu Sc Ac As]
+14.0 +10.8 81 +14 +14 1014.8 1013.8
ЮВ 2 10 км {дождь} 10/5 750 м
[Cu Sc Ac As]
+14.3 +11.6 84 +14 +14 1014.5 1013.5 +18.0 5
штиль 0 10 км 10/5 600 м
[Cu Sc Ac As]
+14.9 +11.5 80 +15 +15 1014.0 1013.0
штиль 0 10 км 10/5 600 м
[Cu Sc Ac As]
+15.2 +11.6 79 +15 +15 1014.0 1013.0
ЮВ 3 10 км 10/5 750 м
[Cu Sc Ac As]
+15.4 +12.0 80 +15 +15 1013.7 1012.7
штиль 0 10 км 10/5 600 м
[Cu Sc Ac As]
+15.8 +12.8 82 +16 +16 1013.0 1012.0
ЮВ 3 10 км 10/5 600 м
[Cu Sc Ac As]
+16.3 +12.9 80 +16 +16 1012.4 1011.4
В 5 10 км 10/5 750 м
[Cu Sc Ac As]
+17.2 +13.0 76 +17 +17 1012.0 1011.0
ЮВ 4 10 км 9/5 600 м
[Cu Sc Ac und]
+16.4 +12.3 77 +16 +16 1011.4 1010.4
В 3 8000 м слаб. дождь 10/5 600 м
[Cu Sc Ac As]
+15.0 +12.6 86 +14 +14 1010.2 1009.2
ЮВ 3 8000 м слаб. ливневой дождь 10/6 750 м
[Cb cap Ac As]
+14.7 +13.1 90 +14 +14 1009.7 1008.7
В 9 8000 м слаб. ливневой дождь 10/6 600 м
[Cb cap Ac As]
+14.6 +13.2 91 +12 +12 1009.2 1008.2
В 9 8000 м в посл. час ливневой дождь 10/6 600 м
[Cb cap Ac As]
+15.0 +13.3 90 +13 +13 1009.0 1008.0
ЮВ 3 10 км в посл. час ливневой дождь 10/6 750 м
[Cb cap Ac As]
+14.4 +12.4 88 +13 +13 1008.6 1007.6 +13.9 14 19.0
СВ 6 10 км 10/6 600 м
[Cb cap Ac As]
+16.5 +11.3 71 +15 +16 1008.5 1007.5
штиль 0 8000 м гроза, ливневой дождь 10/6 600 м
[Cb cap Ac As]
+16.0 +10.9 72 +16 +17 1009.0 1008.0
В 2 8000 м слаб. ливневой дождь {гроза} 10/6 750 м
[Cb cap Ac As]
+14.3 +11.5 83 +14 +15 1009.0 1008.0
З 2 8000 м слаб. ливневой дождь 10/6 600 м
[Cb cap Ac As]
+14.5 +11.0 80 +14 +15 1008.5 1007.5
В 2 8000 м {гроза, ливн. осадки} 10/6 750 м
[Cb cap Ac As]
+15.5 +10.2 71 +15 +16 1008.0 1007.0 5
СВ 3 10 км 8/5 600 м
[Cu Sc Ci fib]
+15.6 +9.5 67 +15 +15 1009.0 1008.0
ЮВ 2 10 км 8/5 750 м
[Cb cap Ac und]
+15.0 +10.5 74 +15 +15 1007.2 1005.2
СВ 6 10 км 8/5 600 м
[Cu Sc Ci fib]
+15.1 +10.3 73 +13 +13 1009.0 1008.0
СВ 6 10 км слаб. ливневой дождь 8/5 600 м
[Cu Sc Ac und]
+15.7 +10.8 73 +14 +14 1009.5 1008.5
СВ 4 10 км в посл. час ливневой дождь 8/5 750 м
[Cu Sc Ac und]
+15.9 +10.6 71 +15 +15 1009.5 1008.5 +18.0 5
СВ 6 10 км 8/5 600 м
[Cu Sc Ac und]
+15.9 +11.4 75 +15 +15 1009.5 1008.5
ЮЗ 2 8000 м слаб. ливневой дождь 8/5 600 м
[Cu Sc Ac und]
+14.2 +11.0 81 +14 +14 1009.5 1008.5
штиль 0 10 км в посл. час ливневой дождь 8/5 750 м
[Cu Sc Ac und]
+13.4 +10.6 83 +13 +13 1009.5 1008.5
штиль 0 10 км {ливн. осадки} 6/4 900 м
[Cu hum Ci fib]
+13.1 +10.1 82 +13 +13 1009.0 1008.0 0.4
штиль 0 10 км 6/4 900 м
[Cu hum Ac trans]
+13.8 +9.3 74 +13 +13 1009.0 1008.0
штиль 0 10 км 6/4 600 м
[Cu hum Ci fib]
+13.7 +8.9 73 +13 +13 1009.0 1008.0
ЮВ 2 10 км 6/4 600 м
[Cu hum Ac trans]
+13.9 +9.7 76 +13 +13 1009.5 1008.5
В 2 10 км 5/5 900 м
[Cu hum]
+14.4 +9.8 74 +14 +14 1010.0 1009.0 +12.5 0.4 5.0
ЮВ 4 10 км 8/6 600 м
[Cu Sc Ac trans]
+15.2 +10.5 74 +14 +15 1010.5 1009.5
В 6 10 км 8/8 600 м
[Cu Sc Ac trans]
+16.4 +11.6 73 +15 +16 1011.0 1010.0
В 6 10 км 8/6 900 м
[Cu Sc Ac trans]
+17.1 +11.8 71 +16 +17 1011.0 1010.0
В 6 10 км 8/6 600 м
[Cu Sc Ac trans]
+17.3 +11.8 70 +16 +17 1010.5 1009.5
В 6 10 км 8/6 600 м
[Cu Sc Ac trans]
+17.0 +11.8 71 +16 +17 1010.0 1009.0
СВ 8 10 км 8/5 900 м
[Cb cap Ci fib]
+17.3 +12.9 75 +16 +16 1010.0 1009.0
СВ 5 10 км 8/3 600 м
[Cu med, cong Ci fib]
+17.3 +13.1 76 +17 +17 1010.0 1009.0
СВ 6 10 км 6/3 600 м
[Cu med, cong Ci fib]
+17.5 +13.2 76 +17 +17 1010.0 1009.0
СВ 2 10 км в посл. час ливневой дождь 8/5 750 м
[Cu Sc Ac trans Ci fib]
+17.0 +12.7 76 +17 +17 1010.0 1009.0
штиль 0 10 км 8/5 600 м
[Cu Sc Ac trans Ci fib]
+15.2 +12.1 82 +15 +15 1010.3 1009.3
штиль 0 10 км зарница 9/5 600 м
[Cb cap Ac trans]
+15.4 +12.5 83 +15 +15 1010.5 1009.5
СВ 5 10 км зарница туман 9/6 900 м
[Cb cap Ac trans]
+16.7 +13.4 81 +16 +16 1011.0 1010.0 +17.8 2
В 5 10 км 9/6 600 м
[Cb cap Ac trans]
+16.1 +12.7 80 +15 +15 1010.5 1009.5
В 5 10 км 9/6 600 м
[Cb cap Ac trans]
+16.3 +12.7 79 +15 +15 1010.5 1009.5
В 5 10 км зарница 9/6 900 м
[Cb cap Ac trans]
+16.1 +12.7 80 +15 +15 1010.5 1009.5
В 3 10 км зарница 9/6 900 м
[Cb cap Ac trans]
+15.0 +10.7 75 +14 +14 1010.0 1009.0
В 3 8000 м в посл. час ливневой дождь 9/6 900 м
[Cb cap Ac trans]
+13.7 +11.7 88 +12 +12 1010.0 1009.0
В 3 10 км 9/6 600 м
[Cb cap Ac trans]
+13.2 +10.0 81 +12 +12 1010.0 1009.0
В 3 10 км 9/4 600 м
[Cu Sc Ac trans]
+14.2 +11.7 85 +13 +13 1010.0 1009.0
В 3 10 км гроза без осадков {ливн. осадки} туман 9/5 750 м
[Cb cap Ac trans]
+15.0 +11.9 82 +14 +14 1010.5 1009.5 +13.0 6 7.8
штиль 0 10 км слаб. ливневой дождь 9/6 600 м
[Cb cap Ac und]
+14.5 +12.0 85 +14 +15 1011.9 1010.9
СВ 4 10 км в посл. час ливневой дождь 9/6 600 м
[Cb cap Ac trans]
+15.6 +11.5 77 +15 +16 1012.5 1011.5
В 4 10 км слаб. ливневой дождь 9/6 750 м
[Cb cap Ac und]
+14.0 +11.9 87 +13 +13 1012.8 1011.8
В 2 10 км слаб. ливневой дождь 9/6 600 м
[Cb cap Ac und]
+13.7 +12.1 90 +13 +15 1012.6 1011.6
В 5 10 км слаб. ливневой дождь 9/6 600 м
[Cb cap Ac und]
+15.0 +14.8 99 +14 +14 1012.1 1011.1
ЮВ 2 10 км в посл. час ливневой дождь 8/8 750 м
[Cb cap]
+15.5 +12.5 82 +15 +16 1011.6 1010.6 11
ЮВ 4 10 км 9/9 600 м
[Cb cap]
+15.5 +13.2 86 +15 +15 1011.8 1010.8
В 2 10 км 9/9 600 м
[Cb cap]
+16.0 +12.4 79 +16 +16 1011.9 1010.9
В 3 10 км 9/9 750 м
[Cb cap]
+16.1 +11.8 76 +16 +16 1012.1 1011.1
СВ 5 10 км 9/9 600 м
[Cb cap]
+16.2 +10.5 69 +15 +15 1011.7 1010.7
штиль 0 10 км 9/9 600 м
[Cb cap]
+16.2 +10.1 67 +16 +16 1011.7 1010.7
Ю 7 8000 м слаб. ливневой дождь 9/9 750 м
[Cb cap]
+15.2 +9.3 68 +13 +13 1012.4 1011.4 +15.3 11
Ю 3 10 км в посл. час ливневой дождь 9/9 600 м
[Cb cap]
+15.3 +8.4 63 +15 +15 1012.8 1011.8
ЮВ 3 10 км 5/5 600 м
[Cu hum]
+15.2 +9.2 67 +15 +15 1013.0 1012.0
С 4 10 км {ливн. осадки} 5/5 750 м
[Cu hum]
+15.6 +11.1 75 +15 +15 1013.3 1012.3
Ю 3 10 км 4/4 600 м
[Cu hum]
+14.0 +9.2 73 +13 +13 1013.0 1012.0
штиль 0 10 км 3/3 600 м
[Cu hum]
+13.8 +8.8 72 +14 +14 1012.9 1011.9
ЮВ 4 10 км 3/3 900 м
[Cu hum]
+15.7 +9.6 67 +15 +15 1013.0 1012.0 0.3
штиль 0 10 км 3/3 600 м
[Cu hum]
+14.7 +8.7 67 +15 +15 1012.9 1011.9
ЮВ 5 10 км 6/6 600 м
[Cu hum]
+16.3 +8.6 60 +15 +15 1012.6 1011.6
ЮВ 4 10 км 6/6 750 м
[Cu hum]
+17.1 +9.5 61 +17 +17 1012.7 1011.7
ЮВ 3 10 км 6/6 600 м
[Cu hum]
+15.9 +8.3 61 +16 +16 1013.2 1012.2
ЮВ 2 10 км 6/6 600 м
[Cu hum]
+16.2 +8.9 62 +17 +17 1013.9 1012.9
ЮВ 5 10 км 6/5 750 м
[Cu hum Ci fib]
+16.0 +8.5 61 +15 +15 1014.3 1013.3 +12.4 16.0
ЮВ 2 10 км 6/4 600 м
[Cu hum Ci fib]
+16.1 +10.2 68 +16 +17 1015.5 1014.5
В 9 10 км 8/6 600 м
[Cb cap Ac trans Ci fib]
+16.8 +10.3 65 +15 +16 1015.6 1014.6
0 10 км гроза без осадков 9/5 750 м
[Cb cap Ac und]
+16.1 +10.3 68 1016.0 1015.0
0 10 км 9/5 600 м
[Cb cap Ac und]
+15.7 +9.3 66 1017.0 1016.0
0 10 км 9/5 600 м
[Cb cap Ac und]
+15.9 +10.1 68 1016.5 1015.5
0 10 км 9/5 750 м
[Cb cap Ac trans]
+16.4 +8.8 61 1017.3 1016.3
В 3 10 км 9/5 600 м
[Cu Sc Ac trans Ci fib]
+16.8 +9.7 63 +17 +17 1018.2 1017.2
В 4 10 км 8/5 600 м
[Cu Sc Ac trans Ci fib]
+16.7 +10.7 68 +16 +16 1018.5 1017.5
ЮВ 2 10 км 8/5 750 м
[Cu Sc Ac trans Ci fib]
+16.2 +10.7 70 +16 +16 1019.0 1018.0
штиль 0 10 км 4/4 600 м
[Cu hum Ci fib]
+13.3 +7.7 69 +13 +13 1019.8 1018.8
штиль 0 10 км 4/4 900 м
[Cu hum Ac trans]
+13.6 +7.2 65 +13 +13 1020.4 1019.4 +17.6
штиль 0 10 км 4/3 600 м
[Cu hum Ac trans]
+12.5 +7.1 70 +12 +12 1020.5 1019.5
штиль 0 10 км 4/3 600 м
[Cu hum Ac trans]
+13.0 +7.9 71 +13 +13 1020.5 1019.5
Местоположение метеостанции Кириния (Кипр): широта 35.35 долгота 33.32 высота над уровнем моря 41 м.
В архиве по умолчанию представлена погода в Киринии за последнюю неделю. Архивные данные за месяц целиком и за предыдущие месяцы, начиная с января 2011 года, Вы можете получить, выбрав интересующий диапазон дат из раскрывающегося списка и нажав кнопку "Найти!".
*Определитесь, кто Вы:
Внимание! Время в таблицах - всемирное. Для получения местного времени необходимо прибавить поправку, которая равна 2 ч.
Смотрите также архив погоды в соседних городах и на ближайших метеорологических станциях:
Партнеры нашего сайта:      
Пояснения к столбцам:
  • Ветер - указаны скорость ветра в м/с - средняя за 10 мин, порывы в срок и между сроками (в фигурных скобках) и направление, откуда дует ветер: С - северный,
  • СВ - северо-восточный, В - восточный, ЮВ - юго-восточный, Ю - южный, ЮЗ - юго-западный, З - западный, СЗ - северо-западный.
  • Видимость - горизонтальная дальность видимости в метрах или километрах. При видимости от 1 до 10 км при отсутствии осадков обычно наблюдается дымка, при ухудшении видимости до 1 км и менее - туман. В сухую погоду видимость может ухудшаться дымом, пылью или мглою.
  • Явления - указаны атмосферные явления, наблюдавшиеся в срок или в последний час перед сроком; фигурными скобками обозначены явления, наблюдавшиеся между сроками (за 1-3 часа до срока); квадратными скобками обозначены град или гололедные отложения с указанием их диаметра в мм.
  • Облачность - указаны через наклонную черту общая и нижняя облачность в баллах и высота нижней границы облаков в метрах; квадратными скобками обозначены формы облаков: Ci - перистые, Cs - перисто-слоистые, Cc - перисто-кучевые, Ac - высококучевые, As - высокослоистые, Sc - слоисто-кучевые, Ns - слоисто-дождевые, Cu - кучевые, Cb - кучево-дождевые. Подробнее классификацию облаков см. в Атласе облаков (PDF).
  • T - Температура воздуха - температура, измеренная на высоте 2 м над землей.
  • Td - Температура точки росы - температура, при понижении до которой содержащийся в воздухе водяной пар достигнет насыщения.
  • f - Относительная влажность воздуха - влажноcть воздуха, измеренная на высоте 2 м над землей.
  • Te - Эффективная температура - температура, которую ощущает одетый по сезону человек в тени. Характеристика душности погоды. При расчете учитывается влияние влажности воздуха и скорости ветра на теплоощущения человека.
  • Tes - Эффективная температура на солнце - температура, которую ощущает человек, с поправкой на солнечный нагрев. Характеристика знойности погоды. Зависит от высоты солнца над горизонтом, облачности и скорости ветра. Ночью, в пасмурную погоду, а также при ветре 12 м/с и более поправка равна нулю.
  • P - Атмосферное давление - приведенное к уровню моря атмосферное давление.
  • Po - Атмосферное давление - измеренное на уровне метеостанции атмосферное давление.
  • Tmin - Минимальная температура - минимум температуры воздуха на высоте 2 м над землей.
  • Tmax - Максимальная температура - максимум температуры воздуха на высоте 2 м над землей.
  • R - Количество осадков - Количество выпавших осадков за период времени, мм. При наведении курсора мыши на число - период времени, за который выпало указанное количество осадков.
  • R24 - Количество осадков - Количество выпавших осадков за 24 часа, мм.
  • S - Снежный покров - Высота снежного покрова, см. При наведении курсора мыши на число - состояние снежного покрова и степень покрытия местности в баллах.